Location: ???????
(55.3754°N, 39.3545°E)
Time: 15:27:16
(UTC+00:00)

BREEZE-M DEB (TANK) - Pass Details

Date: 14 April 2026
Orbit: 341 x 15825 km, 49.4° (Epoch: 16 May)

Event Time Altitude Azimuth Distance (km) Brightness Sun altitude
Rises 23:03:05 0° 257° (WSW) 13,181 8.9 -21.6°
Reaches altitude 10° 23:17:20 10° 258° (WSW) 9,207 8.1 -20.7°
Maximum altitude 23:39:01 61° 186° (S) 1,702 4.4 -19.0°
Drops below altitude 10° 23:44:06 10° 106° (ESE) 2,386 5.8 -18.6°
Sets 23:45:32 0° 101° (ESE) 2,967 6.4 -18.4°
